Fort Eustis, VA

3:55 AM EST on January 18, 2017 (GMT -0500)
Felker Army Air Field

Weather History for KFAF - June, 2013

Change the Weather History Date:

Tuesday, June 25, 2013

  Actual Average Record
Temperature  
Mean Temperature 81 °F -  
Max Temperature 89 °F 84 °F 100 °F (1997)
Min Temperature 73 °F 69 °F 66 °F (2001)
Cooling Degree Days 16    
Growing Degree Days 31 (Base 50)    
Moisture  
Dew Point 73 °F    
Average Humidity 77    
Maximum Humidity 94    
Minimum Humidity 60    
Precipitation  
Precipitation 0.01 in - - ()
Sea Level Pressure  
Sea Level Pressure 30.02 in    
Wind  
Wind Speed 5 mph (SSW)    
Max Wind Speed 8 mph    
Max Gust Speed -    
Visibility 10 miles    
Events Rain , Thunderstorm    
Averages and records for this station are not official NWS values.
T = Trace of Precipitation, MM = Missing Value Source: NWS Daily Summary

Daily Weather History Graph

Daily Weather History Graph

Search for Another Location

Airport or City:

Trip Planner

Search our weather history database for the weather conditions in past years. The results will help you decide how hot, cold, wet, or windy it might be!

Date:

Astronomy

Jun. 25, 2013 Rise Set
Actual Time 5:47 AM EDT 8:30 PM EDT
Civil Twilight 5:16 AM EDT 9:01 PM EDT
Nautical Twilight 4:38 AM EDT 9:39 PM EDT
Astronomical Twilight 3:54 AM EDT 10:23 PM EDT
Moon 10:19 PM EDT (6/25) 8:21 AM EDT (6/25)
Length of Visible Light 15h 44m
Length of Day
14h 42m
Waning Gibbous, 93% of the Moon is Illuminated
Jun 25
Waning Gibbous
Jun 30
Last Quarter
Jul 8
New
Jul 15
First Quarter
Jul 22
Full

Hourly Weather History & Observations

Time (EDT) Temp. Heat Index Dew Point Humidity Pressure Visibility Wind Dir Wind Speed Gust Speed Precip Events Conditions
12:58 AM 76.6 °F - 73.0 °F 89% 30.08 in 10.0 mi SSW 5.8 mph - N/A   Clear
1:58 AM 75.7 °F - 72.3 °F 89% 30.08 in 10.0 mi SSW 5.8 mph - N/A   Clear
2:58 AM 75.0 °F - 72.0 °F 90% 30.07 in 10.0 mi SSW 6.9 mph - N/A   Partly Cloudy
3:58 AM 74.3 °F - 71.6 °F 91% 30.07 in 10.0 mi SSW 5.8 mph - N/A   Clear
4:58 AM 73.6 °F - 70.9 °F 91% 30.06 in 10.0 mi SSW 5.8 mph - N/A   Clear
5:58 AM 73.4 °F - 71.6 °F 94% 30.07 in 10.0 mi South 5.8 mph - N/A   Mostly Cloudy
6:07 AM 73.4 °F - 71.6 °F 94% 30.06 in 10.0 mi Variable 3.5 mph - N/A   Scattered Clouds
6:18 AM 73.4 °F - 71.6 °F 94% 30.06 in 10.0 mi Variable 2.3 mph - N/A   Scattered Clouds
6:58 AM 74.3 °F - 71.2 °F 90% 30.07 in 10.0 mi Variable 2.3 mph - N/A   Scattered Clouds
7:58 AM 76.6 °F - 71.8 °F 85% 30.06 in 10.0 mi Variable 5.8 mph - N/A   Clear
8:58 AM 79.3 °F - 71.8 °F 78% 30.05 in 10.0 mi Variable 5.8 mph - N/A   Clear
9:56 AM 82.4 °F 88.2 °F 73.4 °F 74% 30.04 in 10.0 mi WSW 4.6 mph - N/A   Clear
10:56 AM 84.2 °F 90.9 °F 73.4 °F 70% 30.04 in 10.0 mi West 4.6 mph - N/A   Clear
11:58 AM 85.6 °F 93.4 °F 74.1 °F 68% 30.05 in 10.0 mi Variable 6.9 mph - N/A   Clear
12:58 PM 88.5 °F 97.3 °F 73.9 °F 62% 30.05 in 10.0 mi West 6.9 mph - N/A   Partly Cloudy
1:58 PM 87.6 °F 97.1 °F 75.0 °F 66% 30.03 in 10.0 mi Variable 5.8 mph - N/A   Clear
2:48 PM 86.0 °F 95.1 °F 75.2 °F 70% 30.01 in 6.0 mi Variable 5.8 mph - N/A Rain Light Rain
2:53 PM 84.2 °F 92.3 °F 75.2 °F 74% 30.01 in 5.0 mi SSE 8.1 mph - N/A Rain , Thunderstorm Light Thunderstorms and Rain
2:58 PM 82.9 °F 88.8 °F 73.0 °F 72% 30.02 in 7.0 mi Variable 4.6 mph - 0.01 in Rain , Thunderstorm Light Thunderstorms and Rain
3:01 PM 82.4 °F 88.2 °F 73.4 °F 74% 30.01 in 10.0 mi SSE 8.1 mph - N/A Thunderstorm Thunderstorm
3:13 PM 82.4 °F 88.2 °F 73.4 °F 74% 30.00 in 10.0 mi South 4.6 mph - N/A   Mostly Cloudy
3:58 PM 88.3 °F 98.4 °F 75.4 °F 65% 29.99 in 10.0 mi Variable 1.2 mph - 0.00 in   Clear
4:58 PM 89.4 °F 98.3 °F 74.1 °F 60% 29.98 in 10.0 mi SSW 3.5 mph - N/A   Clear
5:58 PM 87.3 °F 97.2 °F 75.6 °F 68% 29.96 in 10.0 mi South 3.5 mph - N/A   Partly Cloudy
6:58 PM 87.6 °F 95.7 °F 73.4 °F 63% 29.96 in 10.0 mi SW 4.6 mph - N/A   Clear
7:58 PM 85.6 °F 93.8 °F 74.3 °F 69% 29.94 in 10.0 mi Variable 4.6 mph - N/A   Clear
8:58 PM 83.3 °F 90.2 °F 74.1 °F 74% 29.96 in 10.0 mi SW 8.1 mph - N/A   Clear
9:58 PM 82.0 °F 87.9 °F 73.8 °F 76% 29.98 in 10.0 mi SW 5.8 mph - N/A   Clear
10:58 PM 80.1 °F 84.0 °F 72.1 °F 77% 29.98 in 10.0 mi SW 5.8 mph - N/A   Clear
11:58 PM 77.7 °F - 70.2 °F 77% 29.97 in 10.0 mi SW 6.9 mph - N/A   Clear